www.pogodaiklimat.ru

Погода и климат >> Архив погоды >> Венгрия >> Szombathely


ПОГОДА в Szombathely

  • Прогноз погоды в Szombathely
  • Монитор погоды в Szombathely
  • Климат города

АРХИВ ПОГОДЫ в Szombathely

Время (UTC), дата Ветер
(напр.,м/с)
 
Видим.   Явления Облачность Т
(С)
Тd
(С)
f
(%)
Тe
(С)
Тes
(С)
Комфортность P
(гПа)
Po
(гПа)
Тmin
(С)
Tmax
(С)
R
(мм)
R24
(мм)
S
(см)
07 11.08 СВ 3 н/о н/о +18.4 +16.4 88 +19 +19 1022.6 998.7
08 11.08 С 3 н/о н/о +19.2 +16.2 83 +21 +21 комфорт 1022.5 998.6
09 11.08 С 3 40 км 6/5 700 м
[Cu Sc Ac lent Ci sp]
+21.7 +17.1 75 +26 +31 душно 1021.9 998.3
10 11.08 С 4
{8}
н/о н/о +22.7 +16.0 66 +27 +27 душно 1021.8 998.2
11 11.08 С 4
{7}
60 км 5/3 900 м
[Cu med, cong Ac lent Ci sp]
+24.4 +16.9 63 +28 +34 душно 1021.3 997.9
12 11.08 С 4
{7}
60 км 8/3 1000 м
[Cu med, cong Ac cast Ci sp]
+24.6 +15.8 58 +28 +32 душно 1021.1 997.7
13 11.08 С 3 70 км 6/4 1080 м
[Cu med, cong Ac cast Cc]
+25.2 +15.2 54 +28 +33 жарко 1020.7 997.4
14 11.08 С 3 н/о н/о +25.9 +14.7 50 +28 +28 жарко 1020.2 996.9
15 11.08 С 3
{7}
70 км 3/1 1200 м
[Cu med, cong Ac lent Ci sp]
+26.1 +13.6 46 +28 +32 жарко 1019.7 996.5
16 11.08 С 3
{7}
н/о н/о +26.1 +12.6 43 +28 +28 жарко 1019.6 996.4
17 11.08 С 2 н/о н/о +25.6 +12.5 44 +27 +27 жарко 1019.7 996.4
18 11.08 С 1 55 км 8/3 1200 м
[Sc diur, vesp Ac cast Cc]
+24.5 +13.1 49 +27 +27 жарко 1019.8 996.4 +26.6
19 11.08 штиль 0 н/о н/о +20.7 +16.3 76 +24 +24 комфорт 1020.6 996.9
20 11.08 штиль 0 н/о н/о +18.3 +16.1 87 +19 +19 1021.3 997.4
21 11.08 штиль 0 н/о н/о +18.0 +16.2 89 +18 +18 1021.4 997.5
22 11.08 З 2 н/о н/о +18.5 +16.3 87 +20 +20 1021.5 997.6
23 11.08 З 2 н/о н/о +16.9 +15.1 89 +17 +17 1021.8 997.8
00 12.08 СЗ 2 н/о н/о +16.5 +13.8 84 +17 +17 1021.8 997.7
01 12.08 СЗ 2 н/о н/о +17.8 +13.7 77 +18 +18 1021.3 997.4
02 12.08 Ю 1 н/о н/о +15.7 +13.7 88 +16 +16 1021.3 997.2
03 12.08 СЗ 1 20 км 3/0
[Ci sp]
+14.6 +13.0 90 +15 +15 1021.3 997.1
04 12.08 С 2 35 км 3/0
[Ac lent Ci sp]
+17.0 +12.5 75 +17 +17 1020.8 996.8
05 12.08 С 2 40 км 3/0
[Ac lent Ci sp]
+18.2 +12.2 68 +19 +20 1021.0 997.1
06 12.08 С 2 45 км 3/0
[Ac lent Ci sp]
+21.0 +11.6 55 +24 +26 комфорт 1021.0 997.3 +14.2 0
07 12.08 н/о н/о +23.6 +9.2 40 1020.7 997.2
08 12.08 С 2 н/о н/о +24.8 +8.7 36 +25 +25 комфорт 1020.5 997.1
09 12.08 ЮВ 2 55 км 1/1 1500 м
[Cu hum Ac lent Ci sp]
+25.9 +8.0 32 +26 +37 жарко 1020.2 996.9
10 12.08 ЮВ 2 н/о н/о +26.2 +8.7 33 +26 +26 жарко 1019.9 996.7
11 12.08 ЮВ 3 70 км 1/1 1500 м
[Cu med, cong Ci sp]
+27.3 +9.6 33 +28 +39 жарко 1019.5 996.3
12 12.08 ЮЗ 3 70 км 1/1 1500 м
[Cu hum Ci sp]
+28.5 +11.6 35 +29 +40 жарко 1018.7 995.7
13 12.08 Ю 4 70 км 1/1 1500 м
[Cu hum Ci sp]
+28.9 +10.6 32 +29 +37 жарко 1017.8 994.8
14 12.08 ЮЗ 4
{8}
н/о н/о +28.9 +11.9 35 +30 +30 жарко 1017.2 994.2
15 12.08 ЮЗ 4
{8}
70 км 1/0
[Ci sp]
+28.6 +11.7 35 +29 +33 жарко 1016.5 993.5
16 12.08 Ю 4
{7}
н/о н/о +28.3 +12.2 37 +29 +29 жарко 1015.8 992.8
17 12.08 Ю 4
{7}
н/о н/о +27.3 +12.5 40 +29 +29 жарко 1015.4 992.3
18 12.08 Ю 3 60 км 3/0
[Ci sp]
+25.5 +13.0 46 +27 +27 жарко 1015.3 992.1 +29.3 0
19 12.08 ЮВ 1 н/о н/о +22.3 +14.7 62 +26 +26 жарко 1015.5 992.1
20 12.08 штиль 0 н/о н/о +19.9 +14.7 72 +22 +22 комфорт 1015.7 992.1
21 12.08 З 1 н/о н/о +17.9 +15.2 84 +19 +19 1015.8 992.0
22 12.08 Ю 1 н/о н/о +17.2 +15.2 88 +18 +18 1015.7 991.8
23 12.08 ЮЗ 1 н/о н/о +17.1 +14.9 87 +18 +18 1015.3 991.4
00 13.08 ЮЗ 1 н/о н/о +17.0 +14.8 87 +18 +18 1014.9 991.0
01 13.08 Ю 1 н/о н/о +15.8 +14.5 92 +16 +16 1014.6 990.7
02 13.08 Ю 1 н/о н/о +16.0 +15.0 94 +17 +17 1014.2 990.3
03 13.08 Ю 1 30 км 1/0
[Ci sp]
+15.3 +14.5 95 +16 +16 1013.8 989.8
04 13.08 Ю 1 30 км 1/0
[Ci fib]
+15.5 +14.7 95 +16 +16 1013.3 989.4
05 13.08 Ю 1 35 км ясно +16.6 +15.6 94 +17 +18 1013.1 989.3
06 13.08 ЮЗ 2 40 км ясно +19.4 +16.8 85 +22 +25 комфорт 1013.0 989.4 +15.2 0
07 13.08 ЮЗ 3 н/о н/о +22.2 +17.8 76 +27 +27 душно 1012.7 989.3
08 13.08 Ю 4 н/о н/о +24.6 +18.1 67 +29 +29 душно 1012.4 989.2
09 13.08 Ю 4
{7}
40 км ясно +27.0 +19.1 62 +32 +41 очень
душно
1012.1 989.1
10 13.08 Ю 4
{8}
н/о н/о +28.7 +18.2 53 +33 +33 очень
душно
1011.8 988.9
11 13.08 Ю 5
{11}
45 км 1/1 1300 м
[Cu med, cong]
+30.1 +16.2 43 +33 +40 душно 1011.2 988.4
12 13.08 Ю 5
{9}
40 км 3/3 1300 м
[Cu hum]
+30.8 +17.1 44 +35 +40 очень
душно
1010.5 987.8
13 13.08 Ю 4 40 км 4/4 1380 м
[Cu med, cong]
+31.1 +17.8 45 +35 +40 очень
душно
1009.9 987.2
14 13.08 Ю 4
{8}
н/о н/о +31.6 +15.6 38 +34 +34 душно 1009.2 986.6
15 13.08 Ю 3
{8}
35 км 3/3 1500 м
[Cu med, cong Ci sp]
+31.8 +15.7 38 +34 +37 душно 1008.5 985.9
16 13.08 Ю 3
{8}
н/о н/о +31.2 +16.4 41 +34 +34 душно 1008.0 985.4
17 13.08 Ю 5
{8}
н/о н/о +30.0 +16.1 43 +33 +33 душно 1007.5 984.8
18 13.08 Ю 3 40 км 3/0
[Ac lent Ci sp]
+27.9 +16.8 51 +32 +32 душно 1007.9 985.1 +32.2
19 13.08 ЮВ 3 н/о н/о +25.2 +17.7 63 +29 +29 душно 1008.3 985.2
20 13.08 Ю 2 н/о н/о +23.5 +18.4 73 +28 +28 душно 1008.4 985.2
21 13.08 Ю 2 н/о н/о +23.2 +18.3 74 +29 +29 душно 1008.3 985.1
22 13.08 Ю 1 н/о н/о +20.7 +17.9 84 +26 +26 душно 1008.4 985.0
23 13.08 З 1 н/о н/о +18.8 +17.3 91 +21 +21 комфорт 1009.1 985.5
00 14.08 штиль 0 н/о н/о +18.9 +17.6 92 +20 +20 1009.5 985.9
01 14.08 СВ 1 н/о н/о +19.4 +17.2 87 +23 +23 комфорт 1009.7 986.2
02 14.08 В 2 н/о н/о +20.1 +16.9 82 +24 +24 комфорт 1009.8 986.3
03 14.08 В 1 н/о н/о +18.5 +16.7 89 +20 +20 1010.4 986.8
04 14.08 штиль 0 30 км 4/1 1000 м
[Cu med, cong Ac lent Ci sp]
+17.1 +16.3 95 +17 +17 1010.9 987.1
05 14.08 штиль 0 35 км 4/1 1000 м
[Cu med, cong Ac cast Ci sp]
+17.6 +16.6 94 +18 +18 1011.2 987.5
06 14.08 СВ 1 35 км 5/1 1000 м
[Cu med, cong Ac cast Cc]
+21.5 +16.7 74 +25 +28 комфорт 1011.4 988.0 +16.6
07 14.08 СВ 2 н/о н/о +23.2 +16.7 67 +28 +28 душно 1011.3 988.0
08 14.08 С 3
{9}
н/о н/о +24.1 +15.3 58 +27 +27 жарко 1012.1 988.9
09 14.08 СЗ 4 30 км 9/9 480 м
[Cb calv]
+24.3 +15.0 56 +27 +28 жарко 1012.3 989.1
10 14.08 С 5
{9}
н/о н/о +22.4 +16.7 70 +27 +27 душно 1012.7 989.3
11 14.08 С 4
{8}
20 км осадки на расстоянии 9/5 480 м
[Cb calv Ac cast]
+21.6 +16.6 73 +25 +28 комфорт 1012.9 989.5
12 14.08 С 4 15 км слабый дождь {ливн. осадки} 10/3 300 м
[Frnb As op]
+21.1 +17.1 78 +25 +26 комфорт 1013.6 990.1
13 14.08 С 4
{8}
12 км слабый дождь 10/3 300 м
[Frnb As op]
+19.9 +16.7 82 +23 +24 комфорт 1013.7 990.1
14 14.08 СЗ 2
{8}
н/о н/о +18.7 +17.5 93 +20 +20 1014.2 990.5
15 14.08 С 2 30 км в посл. час дождь {ливн. осадки} 9/5 300 м
[Cu Sc Ac As]
+19.9 +18.7 93 +24 +25 комфорт 1012.9 989.3
16 14.08 СЗ 2 н/о н/о +21.2 +17.8 81 +25 +25 комфорт 1012.8 989.3
17 14.08 штиль 0 н/о н/о +21.6 +18.4 82 +26 +26 душно 1012.8 989.4
18 14.08 ЮЗ 1 30 км осадки на расстоянии {ливн. осадки, дождь} 9/4 600 м
[Cu Sc Ac As Ci sp]
+21.1 +18.9 87 +25 +25 комфорт 1013.2 989.7 7
19 14.08 ЮЗ 1 н/о н/о +20.1 +19.3 95 +25 +25 комфорт 1013.7 990.1
20 14.08 З 1 н/о н/о +19.7 +18.9 95 +24 +24 комфорт 1013.6 990.0
21 14.08 З 1 н/о н/о +19.0 +17.8 93 +22 +22 комфорт 1013.8 990.1
22 14.08 З 1 н/о н/о +18.1 +17.3 95 +19 +19 1014.4 990.6
23 14.08 СЗ 2 н/о н/о +19.4 +14.2 72 +22 +22 комфорт 1014.9 991.2
00 15.08 Ю 1 н/о н/о +17.0 +15.3 90 +18 +18 1015.5 991.6
01 15.08 З 1 н/о н/о +17.0 +14.5 85 +18 +18 1015.3 991.4
02 15.08 СЗ 2 н/о н/о +20.2 +13.4 65 +23 +23 комфорт 1015.2 991.6
03 15.08 СЗ 4 28 км 8/5 1000 м
[Sc Ac lent Ci sp]
+20.0 +13.2 65 +22 +22 комфорт 1015.4 991.8
04 15.08 С 4
{9}
40 км 5/3 1000 м
[Sc Ac lent Ci sp]
+20.2 +12.9 63 +22 +22 комфорт 1015.4 991.8
05 15.08 СЗ 4
{8}
45 км 6/0
[Ac lent Ci sp]
+19.9 +12.9 64 +22 +22 комфорт 1016.3 992.6
06 15.08 СЗ 3
{7}
50 км 8/0
[Ac lent Ci sp]
+20.0 +13.7 67 +22 +24 комфорт 1016.8 993.1 +16.1
07 15.08 С 4
{8}
н/о н/о +21.4 +13.6 61 +24 +24 комфорт 1017.1 993.5
08 15.08 С 4
{11}
н/о н/о +22.3 +14.7 62 +26 +26 жарко 1017.5 994.0
09 15.08 С 4
{11}
50 км 6/3 900 м
[Cu med, cong Ac lent Ci sp]
+22.5 +14.6 61 +26 +31 жарко 1018.0 994.5
10 15.08 С 6
{11}
н/о н/о +24.7 +13.6 50 +27 +27 жарко 1017.6 994.3
11 15.08 СЗ 5
{12}
55 км 4/3 1080 м
[Sc diur, vesp Ac lent Ci sp]
+25.5 +14.3 50 +28 +33 жарко 1017.6 994.4
12 15.08 С 6
{11}
55 км 5/3 1300 м
[Cu med, cong Ac lent Ci sp]
+26.2 +13.3 45 +28 +32 жарко 1017.4 994.2
13 15.08 С 5
{11}
60 км 5/4 1300 м
[Cu med, cong Ac lent Ci sp]
+26.0 +12.5 43 +28 +31 жарко 1017.2 994.0
14 15.08 СЗ 4
{13}
н/о н/о +27.3 +13.3 42 +29 +29 жарко 1016.9 993.8
15 15.08 СЗ 4
{10}
50 км 5/3 1300 м
[Sc diur, vesp Ac lent Ci sp]
+26.8 +11.7 39 +28 +30 жарко 1016.8 993.7
16 15.08 С 5
{9}
н/о н/о +26.4 +11.0 38 +27 +27 жарко 1016.7 993.5
17 15.08 С 4
{11}
н/о н/о +25.8 +11.9 42 +27 +27 жарко 1016.6 993.4
18 15.08 СЗ 2
{7}
40 км 3/1 1300 м
[Sc diur, vesp Ac lent Ci sp]
+24.3 +12.3 47 +26 +26 жарко 1016.8 993.5 +27.4
19 15.08 З 2 н/о н/о +20.1 +13.8 67 +23 +23 комфорт 1018.0 994.3
20 15.08 СЗ 2 н/о н/о +19.7 +12.9 65 +22 +22 комфорт 1018.4 994.7
21 15.08 СЗ 2 н/о н/о +19.1 +12.6 66 +21 +21 комфорт 1018.6 994.8
22 15.08 СЗ 2 н/о н/о +18.3 +13.0 71 +19 +19 1018.8 995.0
23 15.08 СЗ 2 н/о н/о +19.2 +12.9 67 +21 +21 комфорт 1018.6 994.8
00 16.08 СЗ 3 н/о н/о +20.2 +12.4 61 +22 +22 комфорт 1018.5 994.8
01 16.08 С 3 н/о н/о +20.0 +12.0 60 +22 +22 комфорт 1018.5 994.8
02 16.08 С 2 н/о н/о +19.5 +11.8 61 +21 +21 комфорт 1018.3 994.6
03 16.08 С 3 30 км 1/0
[Ci sp]
+19.3 +11.8 62 +21 +21 комфорт 1018.4 994.6
04 16.08 С 2 35 км 1/0
[Ci fib]
+18.8 +12.1 65 +20 +20 1018.6 994.8
05 16.08 С 2 35 км 1/0
[Ci sp]
+18.7 +12.5 67 +20 +21 1018.9 995.1
06 16.08 С 2 40 км 1/0
[Ci fib]
+20.4 +13.1 63 +23 +26 комфорт 1018.9 995.2 +18.0 0
07 16.08 С 3 н/о н/о +22.2 +14.1 60 +25 +25 комфорт 1018.7 995.2
08 16.08 СВ 3 н/о н/о +23.3 +13.5 54 +27 +27 душно 1018.8 995.4
09 16.08 С 3
{8}
60 км 1/1 1200 м
[Cu med, cong]
+25.1 +12.0 44 +27 +36 жарко 1018.6 995.3
10 16.08 С 4
{7}
н/о н/о +25.8 +11.6 41 +27 +27 жарко 1018.1 994.9
11 16.08 С 4
{9}
60 км 4/4 1380 м
[Cu med, cong]
+25.8 +11.6 41 +27 +33 жарко 1017.7 994.5
12 16.08 С 3 70 км 4/4 1500 м
[Cu hum]
+27.4 +11.0 36 +28 +35 жарко 1017.1 994.0
13 16.08 С 2 70 км 3/3 1500 м
[Cu med, cong]
+27.8 +10.9 35 +29 +37 жарко 1016.5 993.5
14 16.08 С 2 н/о н/о +27.9 +11.0 35 +29 +29 жарко 1016.0 993.0
15 16.08 С 2 60 км 3/3 1500 м
[Cu hum Ci fib]
+27.1 +10.8 36 +28 +31 жарко 1015.9 992.8
16 16.08 С 2 н/о н/о +27.5 +10.7 35 +28 +28 жарко 1015.6 992.6
17 16.08 С 2 н/о н/о +26.7 +10.0 35 +27 +27 жарко 1015.4 992.3
18 16.08 СВ 1 55 км 1/1 1300 м
[Sc diur, vesp Ci fib]
+24.9 +11.1 42 +26 +26 жарко 1015.5 992.3 +28.6
19 16.08 С 1 н/о н/о +20.8 +12.5 59 +24 +24 комфорт 1016.1 992.5
20 16.08 СЗ 1 н/о н/о +17.1 +14.0 82 +18 +18 1016.6 992.7
21 16.08 штиль 0 н/о н/о +16.8 +13.5 81 +17 +17 1016.8 992.9
22 16.08 З 2 н/о н/о +15.4 +13.2 87 +15 +15 1016.8 992.8
23 16.08 З 1 н/о н/о +14.6 +12.6 88 +15 +15 1017.0 992.9
00 17.08 ЮВ 1 н/о н/о +14.0 +12.6 91 +14 +14 1016.7 992.6
01 17.08 ЮЗ 1 н/о н/о +12.9 +12.0 94 +13 +13 1016.7 992.5
02 17.08 Ю 1 н/о н/о +12.6 +12.0 96 +13 +13 1016.6 992.3
03 17.08 З 1 30 км 1/0
[Ci sp]
+12.1 +11.5 96 +12 +12 1016.3 992.0
04 17.08 ЮВ 1 35 км 1/0
[Ci sp]
+12.0 +11.4 96 +12 +12 1016.4 992.1
05 17.08 ЮВ 1 35 км 1/0
[Ci fib]
+12.5 +12.0 97 +12 +13 1016.6 992.3
06 17.08 штиль 0 45 км ясно +16.3 +14.1 87 +16 +20 1016.3 992.4 +11.8
07 17.08 Ю 1 н/о н/о +20.1 +14.7 71 +24 +24 комфорт 1016.2 992.6
08 17.08 ЮЗ 1 н/о н/о +24.1 +15.1 57 +27 +27 жарко 1015.9 992.6
09 17.08 Ю 2 55 км 1/1 1200 м
[Cu hum]
+26.5 +13.3 44 +28 +39 жарко 1016.1 993.0
10 17.08 ЮВ 4 н/о н/о +27.7 +13.6 42 +30 +30 жарко 1015.7 992.7
11 17.08 Ю 3 50 км 3/3 1300 м
[Cu med, cong]
+28.0 +13.9 42 +30 +39 жарко 1015.4 992.4
12 17.08 Ю 3 50 км 3/3 1380 м
[Cu hum]
+28.7 +14.9 43 +31 +39 жарко 1015.0 992.1
13 17.08 Ю 3 55 км 4/4 1380 м
[Cu hum]
+29.5 +14.1 39 +31 +37 жарко 1014.5 991.6
14 17.08 ЮЗ 3 н/о н/о +30.0 +13.7 37 +32 +32 жарко 1014.2 991.4
15 17.08 Ю 3 60 км 3/3 1500 м
[Cu hum]
+29.4 +13.6 38 +31 +34 жарко 1014.2 991.3
16 17.08 Ю 3 н/о н/о +29.2 +13.4 38 +31 +31 жарко 1014.0 991.1
17 17.08 ЮЗ 1 н/о н/о +28.3 +14.2 42 +30 +30 жарко 1014.0 991.0
18 17.08 Ю 2 50 км 1/0
[Ci sp]
+25.6 +15.3 53 +29 +29 душно 1014.5 991.3 +30.1
19 17.08 Ю 1 н/о н/о +22.4 +16.0 67 +27 +27 душно 1015.3 991.9
20 17.08 З 1 н/о н/о +19.5 +15.8 79 +23 +23 комфорт 1016.1 992.4
21 17.08 З 1 н/о н/о +19.0 +16.0 83 +21 +21 комфорт 1016.3 992.6
22 17.08 СЗ 1 н/о н/о +17.6 +15.6 88 +19 +19 1016.6 992.8
23 17.08 штиль 0 н/о н/о +16.7 +15.2 91 +17 +17 1016.8 992.9
00 18.08 штиль 0 н/о н/о +15.8 +14.7 93 +16 +16 1016.9 992.9
01 18.08 З 1 н/о н/о +15.2 +14.6 96 +16 +16 1017.2 993.1
02 18.08 ЮВ 1 н/о н/о +14.9 +14.3 96 +15 +15 1017.4 993.3
03 18.08 штиль 0 25 км 1/0
[Ci sp]
+14.8 +14.2 96 +14 +14 1017.4 993.3
04 18.08 штиль 0 26 км 1/0
[Ci sp]
+13.9 +13.4 97 +13 +13 1018.0 993.8
05 18.08 З 1 30 км 1/0
[Ci fib]
+14.4 +13.9 97 +15 +15 1018.2 994.1

 

Местоположение метеостанции Szombathely (Венгрия): широта 47.27 долгота 16.63 высота над уровнем моря 221 м.

В архиве по умолчанию представлена погода в Szombathely за последнюю неделю. Архивные данные за месяц целиком и за предыдущие месяцы, начиная с января 2011 года, Вы можете получить, выбрав интересующий диапазон дат из раскрывающегося списка и нажав кнопку "Ввод!".


*Определитесь, кто Вы:
робот инопланетянин человек

Внимание! Время в таблицах - всемирное. Для получения местного времени необходимо прибавить поправку, которая в Szombathely равна 1 ч.

Смотрите также архив погоды в соседних городах и на ближайших метеорологических станциях:

Погода в Lutzmannsburg (Австрия) (22 км)
Погода в Kleinzicken (Австрия) (24 км)
Погода в Bad Tatzmannsdorf (Австрия) (32 км)
Погода в Krumbach I. D. Buckligen Welt (Австрия) (44 км)
Погода в Szentgotthard (Венгрия) (45 км)
Погода в Sopron (Венгрия) (46 км)
Погода в Zalaegerszeg (Венгрия) (46 км)
Погода в Hartberg (Австрия) (49 км)
Погода в Moenichkirchen (Австрия) (53 км)
Погода в Andau (Австрия) (63 км)

Пояснения к столбцам:

Ветер - указаны скорость ветра в м/с - средняя за 10 мин, порывы в срок и между сроками (в фигурных скобках) и направление, откуда дует ветер: С - северный, СВ - северо-восточный, В - восточный, ЮВ - юго-восточный, Ю - южный, ЮЗ - юго-западный, З - западный, СЗ - северо-западный.
Видимость - горизонтальная дальность видимости в метрах или километрах. При видимости от 1 до 10 км при отсутствии осадков обычно наблюдается дымка, при ухудшении видимости до 1 км и менее - туман. В сухую погоду видимость может ухудшаться дымом, пылью или мглою.
Явления - указаны атмосферные явления, наблюдавшиеся в срок или в последний час перед сроком; фигурными скобками обозначены явления, наблюдавшиеся между сроками (за 1-3 часа до срока); квадратными скобками обозначены град или гололедные отложения с указанием их диаметра в мм.
Облачность - указаны через наклонную черту общая и нижняя облачность в баллах и высота нижней границы облаков в метрах; квадратными скобками обозначены формы облаков: Ci - перистые, Cs - перисто-слоистые, Cc - перисто-кучевые, Ac - высококучевые, As - высокослоистые, Sc - слоисто-кучевые, Ns - слоисто-дождевые, Cu - кучевые, Cb - кучево-дождевые. Подробнее классификацию облаков см. в Атласе облаков (PDF).
T - Температура воздуха - температура, измеренная на высоте 2 м над землей.
Td - Температура точки росы - температура, при понижении до которой содержащийся в воздухе водяной пар достигнет насыщения.
f - Относительная влажность воздуха - влажноcть воздуха, измеренная на высоте 2 м над землей.
Te - Эффективная температура - температура, которую ощущает одетый по сезону человек в тени. Характеристика душности погоды. При расчете учитывается влияние влажности воздуха и скорости ветра на теплоощущения человека.
Tes - Эффективная температура на солнце - температура, которую ощущает человек, с поправкой на солнечный нагрев. Характеристика знойности погоды. Зависит от высоты солнца над горизонтом, облачности и скорости ветра. Ночью, в пасмурную погоду, а также при ветре 12 м/с и более поправка равна нулю.
P - Атмосферное давление - приведенное к уровню моря атмосферное давление.
Po - Атмосферное давление - измеренное на уровне метеостанции атмосферное давление.
Tmin - Минимальная температура - минимум температуры воздуха на высоте 2 м над землей.
Tmax - Максимальная температура - максимум температуры воздуха на высоте 2 м над землей.
R - Количество осадков - Количество выпавших осадков за период времени, мм. При наведении курсора мыши на число - период времени, за который выпало указанное количество осадков.
R24 - Количество осадков - Количество выпавших осадков за 24 часа, мм.
S - Снежный покров - Высота снежного покрова, см. При наведении курсора мыши на число - состояние снежного покрова и степень покрытия местности в баллах.